Home   Weather   Manado   Past weeks

Flag for Indonesia Past Weather in Manado, North Sulawesi, Indonesia — Yesterday and Last 2 Weeks

75 °F

Passing clouds.

Feels Like: 74 °F
Forecast: 77 / 85 °F
Wind: 2 mph from North

Location: Menado / Dr. Sam Ratulangi

Current Time: Oct 26, 2016 at 6:50:55 AM

Latest Report: Oct 26, 2016 at 6:00 AM

Visibility: 6 mi

Pressure: 29.86 "Hg

Humidity: 94%

Dew Point: 73 °F

Location of ManadoLocation

Past Weather in Manado — Graph


Manado Temperature Yesterday

Maximum temperature yesterday: 90 °F (at 9:00 AM)
Minimum temperature yesterday: 73 °F (at 4:30 AM)
Average temperature yesterday: 79 °F

High & Low Weather Summary for the Past Weeks

High97 °F (Oct 17, 12:00 PM)100% (Oct 11, 7:00 AM)29.92 "Hg (Oct 11, 7:00 AM)
Low72 °F (Oct 13, 5:30 AM)41% (Oct 17, 10:30 AM)29.68 "Hg (Oct 14, 3:00 PM)
Average81 °F80%29.80 "Hg
* Reported Oct 11 5:30 AM — Oct 26 5:30 AM, Manado, Weather by CustomWeather, © 2016

Note: Actual official high and low records may vary slightly from our data, if they occured in-between our weather recording intervals... More about our weather records


Manado Weather History for the Previous 24 Hours

Scroll right to see more
Time TempWeatherWind HumidityBarometerVisibility
5:30 AM
Wed, Oct 26
75 °FScattered clouds.1 mph94%29.86 "Hg6 mi
5:00 AM75 °FPassing clouds.1 mph94%29.83 "Hg6 mi
4:00 AM75 °FPassing clouds.No wind94%29.83 "Hg6 mi
3:30 AM75 °FPassing clouds.1 mph94%29.83 "Hg6 mi
3:00 AM75 °FPassing clouds.2 mph94%29.83 "Hg6 mi
2:30 AM75 °FPassing clouds.1 mph94%29.83 "Hg6 mi
2:00 AM75 °FPassing clouds.2 mph94%29.83 "Hg6 mi
1:30 AM75 °FPassing clouds.2 mph94%29.83 "Hg6 mi
1:00 AM75 °FPassing clouds.2 mph94%29.86 "Hg6 mi
12:30 AM75 °FPassing clouds.2 mph94%29.86 "Hg6 mi
12:00 AM75 °FPassing clouds.5 mph94%29.86 "Hg6 mi
11:30 PM
Tue, Oct 25
75 °FPassing clouds.No wind94%29.89 "Hg6 mi
10:30 PM75 °FPassing clouds.2 mph94%29.89 "Hg6 mi
10:00 PM75 °FPassing clouds.6 mph94%29.86 "Hg6 mi
9:30 PM75 °FPassing clouds.8 mph94%29.86 "Hg6 mi
9:00 PM75 °FPassing clouds.9 mph100%29.89 "Hg6 mi
8:30 PM77 °FPassing clouds.No wind94%29.83 "Hg6 mi
7:30 PM77 °FPassing clouds.3 mph94%29.83 "Hg6 mi
7:00 PM77 °FPassing clouds.2 mph94%29.83 "Hg6 mi
6:00 PM77 °FPassing clouds.3 mph94%29.80 "Hg6 mi
5:30 PM77 °FLight rain. Passing clouds.3 mph94%29.77 "Hg6 mi
4:30 PM77 °FLight rain. Scattered clouds.3 mph94%29.77 "Hg6 mi
3:30 PM77 °FLight rain. Scattered clouds.2 mph94%29.77 "Hg5 mi
2:30 PM77 °FThunderstorms. Scattered clouds.2 mph94%29.77 "Hg2 mi
2:00 PM75 °FThunderstorms. Scattered clouds.2 mph94%29.77 "Hg2 mi
1:00 PM77 °FThunderstorms. Scattered clouds.3 mph94%29.80 "Hg2 mi
12:30 PM79 °FThunderstorms. Scattered clouds.3 mph89%29.77 "Hg3 mi
12:00 PM81 °FThunderstorms. Scattered clouds.6 mph84%29.80 "Hg3 mi
11:30 AM84 °FLight rain. Scattered clouds.6 mph74%29.80 "Hg5 mi
11:00 AM84 °FLight rain. Scattered clouds.6 mph74%29.80 "Hg5 mi
10:30 AM88 °FScattered clouds.5 mph62%29.83 "HgN/A
10:00 AM90 °FScattered clouds.5 mph63%29.83 "HgN/A
9:30 AM90 °FScattered clouds.3 mph67%29.83 "HgN/A
9:00 AM90 °FScattered clouds.3 mph63%29.86 "HgN/A
8:30 AM88 °FPassing clouds.5 mph66%29.86 "HgN/A
8:00 AM86 °FPassing clouds.3 mph66%29.83 "HgN/A
7:30 AM84 °FPassing clouds.No wind74%29.83 "HgN/A
7:00 AM81 °FPassing clouds.No wind89%29.83 "HgN/A
6:30 AM77 °FPassing clouds.2 mph94%29.80 "HgN/A
6:00 AM73 °FPassing clouds.2 mph100%29.77 "HgN/A
Weather by CustomWeather, © 2016

See weather overviewHow to use our weather pages